Regional Weather Roundup
Issued by NWS

Home | Current Version | Previous Version | Text Only | Print | Product List | Glossary Off
Versions: 1 2 3 4 5 6 7 8 9 10 11 12 13 14 15 16 17 18 19 20 21 22 23 24 25 26 27 28 29 30 31 32 33 34 35 36 37 38 39 40 41 42 43 44 45 46 47 48 49 50

000
ASUS43 KIND 182259
RWRIN

WEATHER ROUNDUP FOR INDIANA
NATIONAL WEATHER SERVICE INDIANAPOLIS IN
700 PM EDT SAT APR 18 2015

NOTE: "FAIR" INDICATES FEW OR NO CLOUDS BELOW 12,000 FEET WITH NO
SIGNIFICANT WEATHER AND/OR OBSTRUCTIONS TO VISIBILITY.

* - STATION DOES NOT REPORT WEATHER SUCH AS PRECIPITATION OR FOG.

+ - STATION NOT QUALITY CONTROLLED BY THE NATIONAL WEATHER SERVICE.
    USE DATA WITH CAUTION...ESPECIALLY DEWPOINT AND RELATIVE
    HUMIDITY OBSERVATIONS.

INZ001>003-010>013-019-020-190000-
NORTHWEST INDIANA

CITY           SKY/WX    TMP DP  RH WIND       PRES   REMARKS
GARY /AIRPORT/ PTSUNNY   45  34  65 N8G21     30.05S
RENSSELAER +   PTSUNNY   66  46  48 N13G18    29.97F

$$

LMZ046-743>745-190000-
SOUTHERN LAKE MICHIGAN

STATION/POSITION TIME  TEMP WIND        PRES
                       AIR  DIR/SP/G
                 (UTC) (F)  (DEG/KT/KT) (MB)
BURNS HARBOR     2200   41  360/  5/  6 1017.6F
MICHIGAN CITY    2200   44  310/  4/  5   N/A
4NW MICH CITY    2200   41  320/  4/  6   N/A

$$

INZ004-005-014>016-021>024-190000-
NORTH CENTRAL INDIANA

CITY           SKY/WX    TMP DP  RH WIND       PRES   REMARKS
GOSHEN         CLOUDY    73  51  46 E8        29.99S
SOUTH BEND     PTSUNNY   66  45  46 NW8       29.99S

$$

INZ006>009-017-018-025>027-190000-
NORTHEAST INDIANA

CITY           SKY/WX    TMP DP  RH WIND       PRES   REMARKS
ANGOLA *+      MOSUNNY   68  43  40 E16       30.04R
FORT WAYNE     CLOUDY    69  48  47 E21G31    30.01R

$$

INZ028-029-035-036-043>045-051>053-190000-
WEST CENTRAL INDIANA

CITY           SKY/WX    TMP DP  RH WIND       PRES   REMARKS
CRAWFORDSVL +  CLOUDY    72  38  29 SE7       29.95F
GREENCASTLE +  CLOUDY    72  41  33 E8        29.95F
LAFAYETTE      CLOUDY    73  48  41 SE7       29.94F
TERRE HAUTE    PTSUNNY   73  50  44 E10       29.93F

$$

INZ030>032-037>040-046>048-054>057-064-065-190000-
CENTRAL INDIANA

CITY           SKY/WX    TMP DP  RH WIND       PRES   REMARKS
COLUMBUS       MOSUNNY   73  41  31 E10       29.95F
INDIANAPOLIS   CLOUDY    74  46  36 E9        29.94F
-EAGLE CREEK   CLOUDY    74  47  38 SE10      29.95F
KOKOMO *+      PTSUNNY   75  50  41 SE6       29.96F
MT COMFORT *+  CLOUDY    75  30  19 SE8       29.97F
SHELBYVILLE    CLOUDY    77  47  34 E10       29.95F

$$

INZ033-034-041-042-049-050-058-059-190000-
EAST CENTRAL INDIANA

CITY           SKY/WX    TMP DP  RH WIND       PRES   REMARKS
MUNCIE         CLOUDY    74  50  42 SE6       29.97F

$$

INZ060-061-067>069-081>083-085>088-190000-
SOUTHWEST INDIANA

CITY           SKY/WX    TMP DP  RH WIND       PRES   REMARKS
EVANSVILLE     PTSUNNY   78  52  40 E7        29.90R
HUNTINGBURG *+ PTSUNNY   75  52  43 SE13      29.90S

$$

INZ062-063-066-070>080-084-089>092-190000-
SOUTH CENTRAL AND SOUTHEAST INDIANA

CITY           SKY/WX    TMP DP  RH WIND       PRES   REMARKS
BLOOMINGTON    PTSUNNY   76  43  30 E12       29.94F
MADISON *+     PTSUNNY   75  36  23 NE12G17   29.96F

$$




USA.gov is the U.S. government's official web portal to all federal, state and local government web resources and services.